Погода в Аяне

Погода в Аяне : погода сейчас, прогноз погоды и архив. Всё, что Вы хотите узнать о погоде в Аяне!

Хотите узнать прогноз погоды в Аяне? Тогда Вам сюда: Погода в Аяне

Поиск расширенной информации на нашем сайте:

Другие новости

Новости СМИ2

Главная страница сайта

Новости сайта

03.07.2017

Напоминаем, что на нашем специализированном сайте Метеоцентр.Азия вы можете получить высокодетализированные автоматические прогнозы погоды по пунктам России, СНГ и мира в авиационном формате (включающие направление и скорость ветра, видимость, явления погоды, количество и форму облачности, нижнюю и верхнюю границу облачности).


Погода в Аяне - сегодня

Время (UTC), дата Ветер
(°,м/с) 
Видим.   Явления Облачность Т
(°С)
Тd
(°С)
f(%) Тe
(°С)
Pmin
(гПа)
dP
(гПа)
Po
(мм)
O2
(г/м3)
Тmin Tmax R s Состояние
почвы
21 24.07.17 030 (СВ) 7-12{12}  1000 м  ливневой дождь  10/10 100 м кучево-дожд. 
[Cb cap]
+11.4 +10.8 96 +12  1006.8  0.8  755  290  +11.4    74    мокрая 
00 25.07.17 030 (СВ) 5{12}  10 км  слаб. ливневой дождь  10/10 300 м кучево-дожд. 
[Cb cap]
+11.8 +10.8 94 +13  1007.1  0.3  755  290           
03 25.07.17 030 (СВ) 2000 м  сильн. морось{ливн. осадки}  10/10 100 м 
[St]
+12.7 +11.9 95 +17  1006.3  -0.8  754  288           
06 25.07.17 360 (С) 20000 м  {ливн. осадки, морось}  10/10 300 м 
[St]
+14.4 +12.1 86 +19  1005  -1.3  753  286           
09 25.07.17 350 (С) 20000 м    10/0 средняя, верхняя 
[Ac trans|Ci fib]
+15.2 +12 81 +21  1004.4  -0.6  753  285    +15.2     
12 25.07.17 350 (С) 20000 м    8/6 1000 м средняя 
[Sc|Ac trans]
+13 +11.4 90 +16  1004  -0.4  752  287           
15 25.07.17 тихо ()   20000 м    4/0 средняя 
[Ac lent]
+9.5 +8.9 96 +10  1002.6  -1.5  751  291           
18 25.07.17 050 (СВ) 20000 м    8/0 средняя, верхняя 
[Ac cast|Cc]
+8.3 +7.9 97 +9  1001.1  -1.4  750  292           
21 25.07.17 тихо ()   20000 м    8/0 средняя, верхняя 
[Ac cast|Cc]
+14.1 +13.6 97 +20  1000.5  -0.6  750  285  +8.1        влажная 
00 26.07.17 330 (СЗ) 20000 м    9/1 1000 м средняя, верхняя 
[Sc diur, vesp|Ac lent|Ci fib]
+21 +11.9 56 +25  999.7  -0.6  749  278           
03 26.07.17 220 (ЮЗ) 20000 м  слаб. ливневой дождь  10/10 600 м кучево-дожд. 
[Cb cap]
+17.1 +11.8 71 +22  999.8  0.1  749  282           
06 26.07.17 230 (ЮЗ) 20000 м  {ливн. осадки}  10/3 1000 м средняя, верхняя 
[Sc diur, vesp|Ac cuf|Ci sp]
+17 +12.7 76 +22  999.8  0.1  749  282           
09 26.07.17 210 (ЮЗ) 20000 м    9/0 средняя, верхняя 
[Ac cuf|Ci sp]
+15.1 +12.1 82 +20  1000.1  0.4  750  284    +21.8  0.0     
12 26.07.17 040 (СВ) 20000 м    6/0 средняя 
[Ac cuf]
+13.4 +12.2 92 +17  1001  0.9  750  286           
15 26.07.17 тихо ()   н/о    н/о 
+13.8 +11.5 86 +17  1001.5  0.4  751  286           
18 26.07.17 030 (СВ) 20000 м    8/3 600 м средняя 
[Sc diur, vesp|Ac cuf]
+12.8 +12 95 +17  1003  1.5  752  287           
21 26.07.17 030 (СВ) 20000 м    9/9 1000 м 
[Sc]
+15 +12.5 85 +21  1004.4  1.4  753  285  +12.4        влажная 
00 27.07.17 230 (ЮЗ) 20000 м    6/6 1000 м средняя 
[Sc|Ac trans]
+14.1 +12.6 91 +20  1005.4  754  286           
03 27.07.17 210 (ЮЗ) 20000 м    3/3 1000 м 
[Sc diur, vesp]
+18.9 +13.2 69 +25  1005.6  0.1  754  281           
06 27.07.17 190 (Ю) 20000 м  в посл. час дождь  10/6 600 м средняя, верхняя 
[Sc|Ac trans|Ci fib]
+19.3 +12.7 66 +25  1005.9  0.3  754  281           
09 27.07.17 210 (ЮЗ) 20000 м    4/0 средняя 
[Ac trans]
+15.4 +12.8 84 +20  1006.2  0.3  754  285    +19.9  0.0     
12 27.07.17 250 (З) 20000 м    3/0 средняя 
[Ac trans]
+13.6 +12 90 +18  1007.4  1.2  755  287           
15 27.07.17 020 (С) 20000 м    ясно 
+10.6 +9.9 95 +13  1007.3  0.1  755  291           
18 27.07.17 020 (С) 20000 м    8/0 средняя 
[Ac trans]
+10 +9.3 95 +11  1007.6  0.3  755  292           
21 27.07.17 040 (СВ) 20000 м    10/0 верхняя 
[Cs]
+14.6 +12.9 90 +20  1008.1  0.5  756  286  +9.8        влажная 
Время (UTC), дата Ветер
(°,м/с) 
Видим.   Явления Облачность Т
(°С)
Тd
(°С)
f(%) Тe
(°С)
Pmin
(гПа)
dP
(гПа)
Po
(мм)
O2
(г/м3)
Тmin Tmax R s Состояние
почвы

Для получения пояснительной информации подведите курсор к названию столбца.

ПОГОДА в Аяне - архив

Всё, что Вы хотите узнать о погоде в Аяне - удобно и подробно!

Выберите нужную дату (начиная с 1 января 2015* года) и нажмите кнопку "Найти".
Будут отображены архивные сводки погоды по пункту Аян, начиная с указанной даты.


Отображать данные в формате CSV (для использования в таблицах Excel)


Внимание! Наш архив погоды предназначен исключительно для личного некоммерческого использования в познавательных целях. Если Вам необходимы официальные справки о состоянии погоды (для производственных, юридических, коммерческих и т.п. целей), обращайтесь в органы Росгидромета.

*Примечание: данная дата относится к архиву по метеостанциям СССР (Россия, СНГ, Балтия).
Архив по метеостанциям Зарубежной Европы и Азии (кроме Китая) хранится 10 дней, по другим регионам земного шара (Китай, Африка, Америка, Австралия, Океания) - 1 день.

Аян - район местоположения метеостанции


Название, широта, долгота, высота метеостанции:
Аян 56.4°ш. 138.2°д. 8 м над ур. моря [Российская Федерация]

Дополнительная информация

В oтличие oт бoльшинства пoгoдных сайтoв мы публикуем пoдрoбную метеoинфoрмацию в детальнoм прoфессиoнальнoм фoрмате.

Характеристики температуры и влажнoсти вoздуха измеряются на высoте 2 м в тени вдали oт зданий и деревьев.
Скoрoсть ветра измеряется на высoте 10 м (на урoвне рoста челoвека скoрoсть ветра ниже в 1.5-2 раза). Если метеoстанция нахoдится в гoрoде или в лесу, тo скoрoсть ветра занижена на 2-4 м/с пo сравнению с oткрытым местoм. Скoрoсть ветра над акватoриями крупных рек и oзёр, а также на вершинах хoлмoв на 2-5 м/с выше, чем в oбычных услoвиях.
Атмoсфернoе давление в разных тoчках местнoсти мoжет значительнo oтличаться oт давления на метеoстанции, в зависимoсти oт услoвий рельефа (при пoдъёме на 10 м давление пoнижается примернo на 1 мм рт.ст.).